Location: Newark
(15.4608°S, 41.1635°W)
Time: 13:11:40
(UTC+00:00)

Envisat - Pass Details

Date: 24 June 2021
Orbit: 764 x 766 km, 98.1° (Epoch: 25 July)

Event Time Altitude Azimuth Distance (km) Brightness Sun altitude
Rises 06:54:19 0° 35° (NE) 3,212 6.9 -31.6°
Reaches altitude 10° 06:56:51 10° 45° (NE) 2,293 6.2 -31.0°
Maximum altitude 07:01:12 30° 105° (ESE) 1,356 4.7 -30.0°
Enters shadow 07:04:24 16° 156° (SSE) 1,925 5.1 -29.3°
